OBJECT AA, 68440

Orbit data source: Space-Track

You're viewing an Uncataloged Satellite

Recently launched and/or uncataloged satellites may have evolving metadata. Metadata may include but not limited to: Owner, Maufacturer, Bus, Motor, and Mission.

OBJECT AA, 68440 is a satellite in SSO that was launched on Mon, 30 Mar 2026 UTC via an FALCON 9 launch vehicle from the Air Force Western Test Range (AFWTR). Unknown objects in Earth's orbit typically refer to objects detected orbiting the Earth but have not yet been identified or cataloged. These objects could be anything from previously untracked satellites, spent rocket stages, debris from satellite collisions, or even natural meteoroids temporarily captured by Earth's gravity.

Loading next visibility...
Identifier
68440, 2026-067AA
Orbit
SSO
Country
Flag of TBDTBD
Related business
None
Manufacturer
Unknown
Mission
Operational spacecraft
Bus & Motor
Unknown
Mass
Unknown
Launch date (UTC)
2026-03-30 (1 month ago)
Launch vehicle
FALCON 9
Launch site
Air Force Western Test Range (AFWTR)
Object type
Unknown
Shape & HBR
Unknown shape, 1.1 m
Radar Cross Section
RCS unknown

Expand to show TLE details & history
Last TLE update: 9 hours ago

TLE from 9 hours ago
0 OBJECT AA
1 68440U 26067AA  26127.14015018  .00017558  00000-0  84680-3 0  9996
2 68440  97.4502  86.2049 0003474 152.4690 207.6729 15.18754934  5718
Epoch: 2026-05-07T03:21Z
TLE epoch observation values (Epoch: 2026-05-07T03:21:48.975Z)
Latitude
-0.00002°
Longitude
170.76027°
Altitude
514.81 km
Speed
7.605 km/s
True Right ascension
05h 44m 49s
True Declination
0° 00' 00"
Sunlit
Object was in daylight at epoch
Visualization orbit readout
Latitude
Unknown
Longitude
Unknown
Altitude
Unknown
Speed
Unknown
Apparent Right ascension
Unknown
Apparent Declination
Unknown
Sunlit
N/A
Visualization observer readout
Local Sidereal Time
20:05:08
Azimuth
Unknown
Elevation
Unknown
Doppler factor
Unknown
Orbital elements
Apogee altitude
508.964 km
Perigee altitude
504.18 km
Semi-major axis
6,884.709 km
Eccentricity
0.00035
Inclination
97.4502°
RAAN
86.2049°
Arg. of periapsis
152.469°
True anomaly
207.65442°
Mean anomaly
207.6729°
Eccentric anomaly
207.66366°
Mean motion
3.7994 °/min
Orbital period
94.75 mins
BSTAR
0.0008468
Loading maneuver chart data...
Computing Atmospheric mass density...
Loading historical data...
Loading historical data...
Loading historical data...
Loading historical data...
Loading historical data...
Loading historical data...
Loading historical data...

Documentation

Showing up to 5 results
|